1st Responders/1st Detectors/Storm Spotters Weather Summary for Marion County, KY

Forecast Maps


Reg. NEXRAD Animation


National Fire Danger: Day 1 & 2 Map

Current NWS Watch/Warnings

SPC Convective Day 1 Outlook


Day 2 Outlook

(Click images to enlarge|Page will refresh every 5 minutes)
UK Ag. Weather Center Desktop Severe Weather Service[HERE]
Marion County, KY Hazardous Weather Outlook Webcast
(9 AM to 9 PM Mon-Fri)
[Fast]
[Dial-up]


UKAWC 1st Detectors/1st Responders Precision Weather Forecast For MARION County, Kentucky
(based on the NWS County Digital Forecast)

ISSUED AT 16:00 UTC ON THURSDAY SEP 20 2018
DAY THURSDAY
EDT 3HR 1P 2P 3P 4P 5P 6P 7P
MAX/MIN -- -- -- -- -- -- 90°
TEMP 88° 88° 90° 90° 90° 88° 83°
SKY COVER 21% 24% 25% 27% 28% 23% 18%
Clouds
DEW PT 72° 70° 70° 70° 68° 68° 70°
RH 59% 55% 52% 50% 49% 53% 62%
POP 12HR -- -- -- -- -- -- --
RAIN/SNOW (liq.equ) -- 0.00in -- -- -- -- --
SNOWFALL -- 0in -- -- -- -- --
WIND SPEED(MPH) 5 5 5 6 6 5 5
WIND Gust(MPH) 7 7 7 7 7 7 6
WIND DIR S S S S S S S
DEW -- -- -- -- -- -- --
HeatIndex 94 95 95 96 94 92 88
Rain Showers -- -- -- -- -- -- --
Thunder Storm -- -- -- -- -- -- --
WIND CHILL -- -- -- -- -- -- --
SPRAY COND
DRY COND
LIVESTOCK HEATSTRESS 81.42 80.77 81.76 81.42 81.25 80.45 77.94



DAY FRIDAY SATURDAY SUNDAY MONDAY TUESDAY WEDNESDAY
EDT 6HR 8P 9P 10P 11P MIDN 1A 2A 3A 4A 5A 6A 7A 8A 9A 10A 11A NOON 1P 2P 3P 4P 5P 6P 7P 8P 9P 10P 11P MIDN 2A 5A 8A 11A 2P 5P 8P 2A 8A 2P 8P 2A 8A 2P 8P 2A 8A 2P 8P 2A 8A 2P 8P
MAX/MIN -- -- -- -- -- -- -- -- -- -- -- -- 70° -- -- -- -- -- -- -- -- -- -- 85° -- -- -- -- -- -- -- 65° -- -- 74° -- -- 61° 70° -- -- 61° 77° -- -- 65° 77° -- -- 65° 74° --
TEMP 81° 79° 76° 76° 76° 76° 74° 74° 74° 72° 72° 70° 72° 74° 77° 81° 83° 85° 85° 85° 85° 83° 81° 77° 76° 74° 74° 74° 72° 70° 67° 65° 68° 74° 72° 67° 65° 63° 70° 65° 63° 63° 77° 70° 68° 67° 77° 72° 68° 65° 74° 65°
SKY COVER 13% 13% 14% 15% 15% 16% 17% 18% 20% 22% 23% 24% 25% 27% 33% 35% 40% 49% 54% 55% 59% 60% 58% 53% 51% 55% 64% 69% 69% 72% 84% 85% 91% 90% 92% 89% 88% 88% 84% 74% 74% 74% 68% 67% 76% 75% 73% 71% 76% 74% 84% 68%
Clouds
DEW PT 70° 70° 68° 68° 67° 67° 67° 67° 67° 67° 67° 65° 65° 67° 67° 68° 70° 70° 70° 70° 70° 70° 70° 70° 70° 70° 70° 68° 68° 68° 67° 65° 63° 65° 65° 63° 61° 61° 63° 63° 61° 63° 67° 67° 65° 65° 68° 67° 65° 65° 67° 63°
RH 68% 74% 76% 76% 76% 75% 78% 78% 78% 81% 83% 84% 81% 78% 71% 67% 63% 60% 58% 58% 58% 62% 66% 78% 85% 87% 87% 84% 87% 96% 100% 96% 84% 76% 75% 87% 89% 93% 78% 92% 93% 96% 70% 87% 86% 93% 73% 87% 90% 100% 76% 90%
POP 12HR 2% -- -- -- -- -- -- -- -- -- -- -- 4% -- -- -- -- -- -- -- -- -- -- -- 44% -- -- -- -- -- -- 48% -- -- -- 43% -- 51% -- 53% -- 40% -- 31% -- 37% -- 48% -- 61% -- 52%
RAIN/SNOW (liq.equ) 0.00in -- -- -- -- -- 0.00in -- -- -- -- -- 0.00in -- -- -- -- -- 0.00in -- -- -- -- -- 0.08in -- -- -- -- 0.07in -- 0.06in -- 0.03in -- 0.04in -- -- -- -- -- -- -- -- -- -- -- -- -- -- -- --
SNOWFALL 0in -- -- -- -- -- 0in -- -- -- -- -- 0in -- -- -- -- -- 0in -- -- -- -- -- 0in -- -- -- -- 0in -- 0in -- 0in -- 0in -- -- -- -- -- -- -- -- -- -- -- -- -- -- -- --
WIND SPEED(MPH) 2 2 2 5 6 6 7 7 7 7 7 7 7 7 8 9 9 9 9 9 8 7 7 6 5 5 5 5 2 1 2 5 6 6 7 6 6 6 7 6 5 5 7 7 6 7 7 7 7 6 8 7
WIND DIR S S S S S S S S S S S S S S S SW SW SW SW SW SW SW SW SW SW SW SW SW SW W N NE NE NE NE NE NE NE NE E E SE S SE S S S S S SW W W
HeatIndex 84 79 76 76 76 76 74 74 74 72 72 70 72 74 77 84 88 89 90 90 90 88 85 77 76 74 74 74 72 70 67 65 68 74 72 67 65 63 70 65 63 63 77 70 68 67 77 72 68 65 74 65
Rain Showers -- -- -- -- -- -- -- -- -- -- -- -- Slight Chance Slight Chance Slight Chance Slight Chance Slight Chance Slight Chance Chance Chance Chance Chance Chance Chance Chance Chance Chance Chance Chance Chance Chance Chance Chance Chance Chance Chance Chance Chance Chance Slight Chance Chance Chance Chance Chance Chance Chance Chance Chance Likely Chance Chance Slight Chance
Thunder Storm -- -- -- -- -- -- -- -- -- -- -- -- Slight Chance Slight Chance Slight Chance Slight Chance Slight Chance Slight Chance Chance Chance Chance Chance Chance Chance Chance Chance Chance Chance Chance Chance Chance Chance Chance Chance Chance Chance Chance Chance Chance Slight Chance Chance Chance Chance Chance Chance Chance Chance Chance Chance Chance Chance Slight Chance
WIND CHILL -- -- -- -- -- -- -- -- -- -- -- -- -- -- -- -- -- -- -- -- -- -- -- -- -- -- -- -- -- -- -- -- -- -- -- -- -- -- -- -- -- -- -- -- -- -- -- -- -- -- -- --
SPRAY COND
DRY COND
LIVESTOCK HEATSTRESS 77.09 76.11 73.73 73.73 73.73 73.64 72.16 72.16 72.16 70.62 70.77 69.01 70.62 72.16 74.10 76.97 78.08 79.24 78.95 78.95 78.95 77.94 76.85 74.80 74.58 72.91 72.91 72.66 71.06 69.75 67.00 64.86 67.19 71.99 70.19 66.41 64.62 62.84 68.64 64.73 62.84 62.91 74.00 69.20 67.29 66.68 74.30 71.06 67.49 65.00 71.99 64.66

Click on individual weather variable above in left-hand column (ie., TEMP, RH, QPF 12HR) to view state forecast maps






NWS 48 Hr. Forecast Maps,

Regional Hourly Observations For MARION County, Kentucky
Issued at 100 PM EDT THU SEP 20 2018
SOUTHEAST KENTUCKY
  
CITY           SKY/WX    TMP DP  RH WIND       PRES   REMARKS
JACKSON        NOT AVBL                                               
LONDON         NOT AVBL                                               
SOMERSET       NOT AVBL                                               
MIDDLESBORO    NOT AVBL                                               
MONTICELLO     NOT AVBL                                               


Current NOWCAST not available:
Nowcasts are not issued routinely during fair weather. Only when
precipitation or other significant weather is occuring in this county will these
forecasts be issued. Currently, there is no short term forecast in effect.


Fire Weather Forecast For MARION County, KY
Provided by the National Weather Service:

Issued at: Thu Sep 20 13:05:01 EDT 2018


                      Today        Tonight      Fri          

CLOUD COVER           MClear       MClear       PCldy        
PRECIP TYPE           NONE         NONE         tstms        
CHANCE PRECIP (%)     0            0            40           
TEMP (24H TREND)      93 (+2)      70 (+1)      87           
RH % (24H TREND)      44 (-4)      88 (-9)      54           
20FTWND-VAL/AM(MPH)   Lgt/Var                   S  7         
20FTWND-RDG/PM(MPH)   Lgt/Var      Lgt/Var      SW  7        
PRECIP AMOUNT         0.00         0.00         0.05         
MIXING HGT(FT-AGL/MSL)7039                      6272         
TRANSPORT WND (MPH)   SW  7                     SW 18        
VENT RATE (KT-FT)     43928                     107532       
DISPERSION            Fair                      Excellent    
DSI                   SLGT UNSTBL  SLGT UNSTBL  SLGT UNSTBL  
LAL                   1            1            3            
HAINES INDEX          3            3            3            
ADI EARLY             23 FAIR      2 VERY POOR  54 GEN GOOD  
ADI LATE              34 FAIR      4 VERY POOR  60 GEN GOOD  
MAX LVORI EARLY       7            4            5            
MAX LVORI LATE        2            5            3            

REMARKS...ADI IS ATMOSPHERIC DISPERSION INDEX BY LAVDAS.        
LVORI IS LOW VISIBILITY OCCURRENCE RISK INDEX.

.SATURDAY...Mostly cloudy with a 50 percent chance of showers and
thunderstorms. Lows in the mid 60s. Highs in the mid 70s. South
winds around 5 mph. 
.SUNDAY...Cloudy with a 50 percent chance of showers and
thunderstorms. Lows in the lower 60s. Highs in the lower 70s.
North winds around 5 mph. 
.MONDAY...Mostly cloudy with a 50 percent chance of showers and
thunderstorms. Lows in the lower 60s. Highs in the upper 70s.
South winds up to 5 mph. 
.TUESDAY...Mostly cloudy with a 50 percent chance of showers and
thunderstorms. Lows in the mid 60s. Highs in the upper 70s. South
winds around 5 mph. 
.WEDNESDAY...Showers likely and chance of thunderstorms. Lows in
the mid 60s. Highs in the mid 70s. West winds 5 to 10 mph. 

SPC's Fire Weather Web Tool (Excellent!), SPC's Fire Weather Outlooks, NWS Fire Weather WEB, Fire Danger Class Map,
Keetch-Byram Drought Index, ROMAN Web, Haines Index ,
WFAS's 10-hr Dead Fuel Moist., WFAS's 100-hr Dead Fuel Moist., Probablity of Ignition, Visual blackness Map, Palmer Drought Index, HPC's Rainfall Forecast Maps


Hazardous Weather Outlook For MARION County, Kentucky
310 AM EDT Thu Sep 20 2018 /210 AM CDT Thu Sep 20 2018/

 DAY ONE  Today and Tonight.

No hazardous weather is expected at this time.

 DAYS TWO THROUGH SEVEN  Friday through Wednesday.

Waves of thunderstorms will be possible each day through the period. 

A few strong to severe storms will be possible Friday afternoon and
evening, with locally gusty winds, heavy rainfall, and lightning  
being the main threats. 

Additional rounds of thunderstorms through Wednesday will produce 2
to 4 inches of total rainfall, with locally higher amounts possible.
Localized flooding is likely where heavier and/or repeated rainfall
occurs.

 SPOTTER INFORMATION STATEMENT  

Spotter activation may be required Friday afternoon and evening.

Latest MARION County, Kentucky Watches, Warnings and Advisories.
Additional Drought Info.: UKAWC Drought Page, Kentucky Drought Watch


7-Day Forecast For MARION County, KY

TODAY
Mostly sunny in the morning then becoming partly cloudy. Highs in the lower 90s. South winds up to 5 mph.

TONIGHT
Mostly clear. Lows in the lower 70s. South winds 5 to 10 mph.

FRIDAY
Partly cloudy with a 50 percent chance of showers and thunderstorms. Highs in the mid 80s. Southwest winds 5 to 15 mph.

FRIDAY NIGHT
Mostly cloudy with a 50 percent chance of showers and thunderstorms. Lows in the mid 60s. West winds up to 10 mph.

SATURDAY
Cloudy with a 50 percent chance of showers and thunderstorms. Highs in the mid 70s. Northeast winds 5 to 10 mph.

SATURDAY NIGHT
Cloudy with a 50 percent chance of showers and thunderstorms. Lows in the lower 60s.

SUNDAY
Mostly cloudy with a 50 percent chance of showers and thunderstorms. Highs in the lower 70s.

SUNDAY NIGHT
Mostly cloudy with a 40 percent chance of showers and thunderstorms. Lows in the lower 60s.

MONDAY
Mostly cloudy with a 40 percent chance of showers and thunderstorms. Highs in the upper 70s.

MONDAY NIGHT
Mostly cloudy with a 40 percent chance of showers and thunderstorms. Lows in the mid 60s.

TUESDAY
Mostly cloudy with a 50 percent chance of showers and thunderstorms. Highs in the upper 70s.

TUESDAY NIGHT
Showers and thunderstorms likely. Lows in the mid 60s. Chance of precipitation 60 percent.

WEDNESDAY
Mostly cloudy with a 50 percent chance of showers and thunderstorms. Highs in the mid 70s.

Ag Weather Center, Department of Biosystems & Agricultural Engineering, University of Kentucky